Time,TemperatureF,DewpointF,PressureIn,WindDirection,WindDirectionDegrees,WindSpeedMPH,WindSpeedGustMPH,Humidity,HourlyPrecipIn,Conditions,Clouds,dailyrainin,SoftwareType,DateUTC
2013-03-08 00:02:00,31.0,25.0,-100.00,NNW,340,5.0,9.0,78,0.00,,,-99.99,,2013-03-08 05:02:00,
2013-03-08 00:12:00,31.0,25.0,-100.00,North,350,6.0,9.0,78,0.00,,,-99.99,,2013-03-08 05:12:00,
2013-03-08 00:22:00,31.0,25.0,-100.00,North,350,6.0,10.0,77,0.00,,,-99.99,,2013-03-08 05:22:00,
2013-03-08 00:33:00,31.0,25.0,-100.00,North,350,6.0,11.0,77,0.00,,,-99.99,,2013-03-08 05:33:00,
2013-03-08 00:42:00,31.0,24.0,-100.00,North,0,7.0,12.0,75,0.00,,,-99.99,,2013-03-08 05:42:00,
2013-03-08 00:52:00,30.0,24.0,-100.00,North,350,6.0,10.0,76,0.00,,,-99.99,,2013-03-08 05:52:00,
2013-03-08 01:02:00,30.0,24.0,-100.00,North,355,6.0,12.0,75,0.00,,,-99.99,,2013-03-08 06:02:00,
2013-03-08 01:11:00,30.0,23.0,-100.00,North,350,6.0,13.0,75,0.00,,,-99.99,,2013-03-08 06:11:00,
2013-03-08 01:22:00,30.0,23.0,-100.00,North,355,8.0,12.0,74,0.00,,,-99.99,,2013-03-08 06:22:00,
2013-03-08 01:32:00,30.0,23.0,-100.00,North,350,6.0,13.0,75,0.00,,,-99.99,,2013-03-08 06:32:00,
2013-03-08 01:42:00,30.0,23.0,-100.00,North,355,7.0,12.0,76,0.00,,,-99.99,,2013-03-08 06:42:00,
2013-03-08 01:51:00,30.0,23.0,-100.00,North,10,7.0,14.0,76,0.00,,,-99.99,,2013-03-08 06:51:00,
2013-03-08 02:01:00,29.0,23.0,-100.00,NNW,340,9.0,12.0,76,0.00,,,-99.99,,2013-03-08 07:01:00,
2013-03-08 02:11:00,29.0,23.0,-100.00,NW,310,7.0,10.0,77,0.00,,,-99.99,,2013-03-08 07:11:00,
2013-03-08 02:22:00,29.0,23.0,-100.00,North,350,4.0,9.0,77,0.00,,,-99.99,,2013-03-08 07:22:00,
2013-03-08 02:32:00,28.0,22.0,-100.00,NNW,340,7.0,9.0,78,0.00,,,-99.99,,2013-03-08 07:32:00,
2013-03-08 02:42:00,28.0,22.0,-100.00,NNW,340,6.0,12.0,78,0.00,,,-99.99,,2013-03-08 07:42:00,
2013-03-08 02:51:00,28.0,22.0,-100.00,NW,320,4.0,8.0,80,0.00,,,-99.99,,2013-03-08 07:51:00,
2013-03-08 03:01:00,28.0,23.0,-100.00,NNW,330,6.0,11.0,80,0.00,,,-99.99,,2013-03-08 08:01:00,
2013-03-08 03:11:00,28.0,23.0,-100.00,NNW,330,6.0,9.0,80,0.00,,,-99.99,,2013-03-08 08:11:00,
2013-03-08 03:22:00,28.0,23.0,-100.00,NW,325,6.0,9.0,81,0.00,,,-99.99,,2013-03-08 08:22:00,
2013-03-08 03:32:00,28.0,23.0,-100.00,NW,325,7.0,11.0,82,0.00,,,-99.99,,2013-03-08 08:32:00,
2013-03-08 03:42:00,28.0,23.0,-100.00,NNW,330,5.0,10.0,82,0.00,,,-99.99,,2013-03-08 08:42:00,
2013-03-08 03:52:00,27.0,23.0,-100.00,NW,320,9.0,13.0,82,0.00,,,-99.99,,2013-03-08 08:52:00,
2013-03-08 04:03:00,27.0,22.0,-100.00,NNW,330,7.0,12.0,81,0.00,,,-99.99,,2013-03-08 09:03:00,
2013-03-08 04:11:00,26.0,22.0,-100.00,NW,320,6.0,11.0,82,0.00,,,-99.99,,2013-03-08 09:11:00,
2013-03-08 04:21:00,26.0,22.0,-100.00,NW,320,6.0,12.0,81,0.00,,,-99.99,,2013-03-08 09:21:00,
2013-03-08 04:32:00,26.0,21.0,-100.00,NW,325,5.0,9.0,81,0.00,,,-99.99,,2013-03-08 09:32:00,
2013-03-08 04:42:00,26.0,21.0,-100.00,NNW,335,5.0,9.0,81,0.00,,,-99.99,,2013-03-08 09:42:00,
2013-03-08 04:52:00,26.0,21.0,-100.00,NW,320,4.0,9.0,82,0.00,,,-99.99,,2013-03-08 09:52:00,
2013-03-08 05:01:00,26.0,22.0,-100.00,NW,320,6.0,9.0,83,0.00,,,-99.99,,2013-03-08 10:01:00,
2013-03-08 05:11:00,26.0,21.0,-100.00,NW,315,6.0,8.0,83,0.00,,,-99.99,,2013-03-08 10:11:00,
2013-03-08 05:21:00,26.0,22.0,-100.00,NNW,335,6.0,8.0,83,0.00,,,-99.99,,2013-03-08 10:21:00,
2013-03-08 05:32:00,26.0,22.0,-100.00,NNW,330,4.0,9.0,83,0.00,,,-99.99,,2013-03-08 10:32:00,
2013-03-08 05:42:00,26.0,22.0,-100.00,North,0,6.0,10.0,83,0.00,,,-99.99,,2013-03-08 10:42:00,
2013-03-08 05:51:00,27.0,22.0,-100.00,NNW,345,6.0,12.0,82,0.00,,,-99.99,,2013-03-08 10:51:00,
2013-03-08 06:01:00,27.0,22.0,-100.00,NNW,335,6.0,10.0,82,0.00,,,-99.99,,2013-03-08 11:01:00,
2013-03-08 06:11:00,27.0,22.0,-100.00,NNW,330,6.0,9.0,83,0.00,,,-99.99,,2013-03-08 11:11:00,
2013-03-08 06:21:00,27.0,22.0,-100.00,NW,325,4.0,9.0,83,0.00,,,-99.99,,2013-03-08 11:21:00,
2013-03-08 06:32:00,27.0,22.0,-100.00,NNW,340,5.0,9.0,83,0.00,,,-99.99,,2013-03-08 11:32:00,
2013-03-08 06:42:00,27.0,22.0,-100.00,NNW,335,6.0,9.0,83,0.00,,,-99.99,,2013-03-08 11:42:00,
2013-03-08 06:52:00,27.0,22.0,-100.00,NNW,335,6.0,9.0,83,0.00,,,-99.99,,2013-03-08 11:52:00,
2013-03-08 07:02:00,27.0,23.0,-100.00,North,350,4.0,9.0,83,0.00,,,-99.99,,2013-03-08 12:02:00,
2013-03-08 07:11:00,27.0,23.0,-100.00,NNW,345,4.0,9.0,83,0.00,,,-99.99,,2013-03-08 12:11:00,
2013-03-08 07:22:00,27.0,23.0,-100.00,NNW,345,6.0,9.0,83,0.00,,,-99.99,,2013-03-08 12:22:00,
2013-03-08 07:32:00,27.0,23.0,-100.00,North,355,7.0,10.0,83,0.00,,,-99.99,,2013-03-08 12:32:00,
2013-03-08 07:43:00,28.0,23.0,-100.00,NNW,330,6.0,9.0,83,0.00,,,-99.99,,2013-03-08 12:43:00,
2013-03-08 07:52:00,28.0,23.0,-100.00,North,350,6.0,9.0,83,0.00,,,-99.99,,2013-03-08 12:52:00,
2013-03-08 08:01:00,28.0,23.0,-100.00,NNW,330,6.0,10.0,83,0.00,,,-99.99,,2013-03-08 13:01:00,
2013-03-08 08:11:00,28.0,24.0,-100.00,NW,325,5.0,9.0,83,0.00,,,-99.99,,2013-03-08 13:11:00,
2013-03-08 08:22:00,28.0,24.0,-100.00,NW,320,6.0,9.0,82,0.00,,,-99.99,,2013-03-08 13:22:00,
2013-03-08 08:32:00,28.0,24.0,-100.00,North,0,7.0,14.0,82,0.00,,,-99.99,,2013-03-08 13:32:00,
2013-03-08 08:42:00,28.0,23.0,-100.00,North,10,5.0,11.0,81,0.00,,,-99.99,,2013-03-08 13:42:00,
2013-03-08 08:52:00,29.0,24.0,-100.00,North,355,6.0,12.0,82,0.00,,,-99.99,,2013-03-08 13:52:00,
2013-03-08 09:03:00,29.0,24.0,-100.00,North,5,7.0,9.0,81,0.00,,,-99.99,,2013-03-08 14:03:00,
2013-03-08 09:11:00,29.0,23.0,-100.00,North,5,9.0,16.0,80,0.00,,,-99.99,,2013-03-08 14:11:00,
2013-03-08 09:22:00,29.0,24.0,-100.00,North,0,7.0,14.0,80,0.00,,,-99.99,,2013-03-08 14:22:00,
2013-03-08 09:32:00,29.0,24.0,-100.00,North,5,4.0,12.0,80,0.00,,,-99.99,,2013-03-08 14:32:00,
2013-03-08 09:42:00,29.0,24.0,-100.00,North,0,3.0,12.0,80,0.00,,,-99.99,,2013-03-08 14:42:00,
2013-03-08 09:52:00,29.0,24.0,-100.00,North,5,7.0,13.0,80,0.00,,,-99.99,,2013-03-08 14:52:00,
2013-03-08 10:03:00,29.0,24.0,-100.00,NNW,335,9.0,12.0,79,0.00,,,-99.99,,2013-03-08 15:03:00,
2013-03-08 10:12:00,30.0,25.0,-100.00,NW,320,7.0,12.0,79,0.00,,,-99.99,,2013-03-08 15:12:00,
2013-03-08 10:22:00,30.0,24.0,-100.00,NNW,340,9.0,12.0,78,0.00,,,-99.99,,2013-03-08 15:22:00,
2013-03-08 10:32:00,31.0,25.0,-100.00,NNW,345,7.0,12.0,78,0.00,,,-99.99,,2013-03-08 15:32:00,
2013-03-08 10:42:00,31.0,24.0,-100.00,NNW,340,7.0,12.0,76,0.00,,,-99.99,,2013-03-08 15:42:00,
2013-03-08 10:53:00,31.0,24.0,-100.00,NNW,335,7.0,12.0,75,-99.99,,,-99.99,,2013-03-08 15:53:00,
2013-03-08 11:02:00,32.0,25.0,-100.00,NNW,340,8.0,11.0,73,0.00,,,-99.99,,2013-03-08 16:02:00,
2013-03-08 11:11:00,33.0,26.0,-100.00,NW,310,9.0,15.0,74,0.00,,,-99.99,,2013-03-08 16:11:00,
2013-03-08 11:22:00,33.0,24.0,-100.00,North,355,9.0,12.0,69,0.00,,,-99.99,,2013-03-08 16:22:00,
2013-03-08 11:32:00,34.0,25.0,-100.00,NW,305,9.0,14.0,70,0.00,,,-99.99,,2013-03-08 16:32:00,
2013-03-08 11:42:00,34.0,25.0,-100.00,NNW,340,7.0,14.0,68,0.00,,,-99.99,,2013-03-08 16:42:00,
2013-03-08 11:52:00,34.0,24.0,-100.00,NNW,340,7.0,12.0,66,0.00,,,-99.99,,2013-03-08 16:52:00,
2013-03-08 12:03:00,35.0,25.0,-100.00,NNW,335,10.0,12.0,68,0.00,,,-99.99,,2013-03-08 17:03:00,
2013-03-08 12:11:00,35.0,26.0,-100.00,North,0,7.0,15.0,67,0.00,,,-99.99,,2013-03-08 17:11:00,
2013-03-08 12:21:00,36.0,26.0,-100.00,NW,305,8.0,16.0,66,0.00,,,-99.99,,2013-03-08 17:21:00,
2013-03-08 12:32:00,36.0,25.0,-100.00,NNW,330,8.0,15.0,65,0.00,,,-99.99,,2013-03-08 17:32:00,
2013-03-08 12:42:00,36.0,25.0,-100.00,NW,325,9.0,14.0,63,0.00,,,-99.99,,2013-03-08 17:42:00,
2013-03-08 12:52:00,36.0,25.0,-100.00,North,350,4.0,14.0,64,0.00,,,-99.99,,2013-03-08 17:52:00,
2013-03-08 13:02:00,36.0,25.0,-100.00,North,5,6.0,10.0,63,0.00,,,-99.99,,2013-03-08 18:02:00,
2013-03-08 13:11:00,37.0,25.0,-100.00,North,5,7.0,14.0,63,0.00,,,-99.99,,2013-03-08 18:11:00,
2013-03-08 13:21:00,36.0,25.0,-100.00,North,355,9.0,15.0,62,0.00,,,-99.99,,2013-03-08 18:21:00,
2013-03-08 13:32:00,36.0,25.0,-100.00,NNE,25,7.0,13.0,62,0.00,,,-99.99,,2013-03-08 18:32:00,
2013-03-08 13:42:00,37.0,25.0,-100.00,North,0,8.0,16.0,62,0.00,,,-99.99,,2013-03-08 18:42:00,
2013-03-08 13:52:00,36.0,25.0,-100.00,North,0,9.0,17.0,62,0.00,,,-99.99,,2013-03-08 18:52:00,
2013-03-08 14:01:00,36.0,25.0,-100.00,North,355,10.0,14.0,62,0.00,,,-99.99,,2013-03-08 19:01:00,
2013-03-08 14:11:00,37.0,25.0,-100.00,NNE,20,9.0,12.0,63,0.00,,,-99.99,,2013-03-08 19:11:00,
2013-03-08 14:22:00,37.0,25.0,-100.00,North,0,7.0,13.0,62,0.00,,,-99.99,,2013-03-08 19:22:00,
2013-03-08 14:32:00,37.0,24.0,-100.00,North,355,7.0,14.0,60,0.00,,,-99.99,,2013-03-08 19:32:00,
2013-03-08 14:42:00,36.0,26.0,-100.00,North,0,7.0,18.0,64,0.00,,,-99.99,,2013-03-08 19:42:00,
2013-03-08 14:52:00,36.0,24.0,-100.00,NNE,20,9.0,13.0,61,0.00,,,-99.99,,2013-03-08 19:52:00,
2013-03-08 15:01:00,36.0,24.0,-100.00,North,0,8.0,13.0,61,0.00,,,-99.99,,2013-03-08 20:01:00,
2013-03-08 15:11:00,36.0,25.0,-100.00,North,0,7.0,15.0,63,0.00,,,-99.99,,2013-03-08 20:11:00,
2013-03-08 15:22:00,36.0,24.0,-100.00,NNE,15,11.0,17.0,62,0.00,,,-99.99,,2013-03-08 20:22:00,
2013-03-08 15:32:00,37.0,25.0,-100.00,North,10,7.0,14.0,63,0.00,,,-99.99,,2013-03-08 20:32:00,
2013-03-08 15:42:00,36.0,24.0,-100.00,North,0,10.0,14.0,61,0.00,,,-99.99,,2013-03-08 20:42:00,
2013-03-08 15:52:00,37.0,25.0,-100.00,NNW,335,8.0,12.0,61,0.00,,,-99.99,,2013-03-08 20:52:00,
2013-03-08 16:02:00,36.0,25.0,-100.00,NNE,20,9.0,14.0,64,0.00,,,-99.99,,2013-03-08 21:02:00,
2013-03-08 16:11:00,37.0,25.0,-100.00,North,355,9.0,12.0,63,0.00,,,-99.99,,2013-03-08 21:11:00,
2013-03-08 16:22:00,37.0,26.0,-100.00,North,0,7.0,14.0,64,0.00,,,-99.99,,2013-03-08 21:22:00,
2013-03-08 16:32:00,37.0,25.0,-100.00,North,10,6.0,12.0,61,0.00,,,-99.99,,2013-03-08 21:32:00,
2013-03-08 16:42:00,37.0,26.0,-100.00,North,0,9.0,14.0,63,0.00,,,-99.99,,2013-03-08 21:42:00,
2013-03-08 16:52:00,37.0,25.0,-100.00,North,0,9.0,15.0,62,0.00,,,-99.99,,2013-03-08 21:52:00,
2013-03-08 17:01:00,37.0,25.0,-100.00,North,350,7.0,15.0,61,0.00,,,-99.99,,2013-03-08 22:01:00,
2013-03-08 17:11:00,37.0,24.0,-100.00,North,0,8.0,12.0,61,0.00,,,-99.99,,2013-03-08 22:11:00,
2013-03-08 17:22:00,36.0,25.0,-100.00,North,10,6.0,11.0,64,0.00,,,-99.99,,2013-03-08 22:22:00,
2013-03-08 17:32:00,35.0,25.0,-100.00,North,5,9.0,16.0,64,0.00,,,-99.99,,2013-03-08 22:32:00,
2013-03-08 17:42:00,36.0,25.0,-100.00,NNE,25,7.0,13.0,64,0.00,,,-99.99,,2013-03-08 22:42:00,
2013-03-08 17:52:00,35.0,24.0,-100.00,North,10,7.0,12.0,63,0.00,,,-99.99,,2013-03-08 22:52:00,
2013-03-08 18:02:00,35.0,24.0,-100.00,North,0,6.0,11.0,65,0.00,,,-99.99,,2013-03-08 23:02:00,
2013-03-08 18:12:00,35.0,25.0,-100.00,NNW,345,4.0,7.0,66,0.00,,,-99.99,,2013-03-08 23:12:00,
2013-03-08 18:22:00,34.0,24.0,-100.00,NNW,335,6.0,11.0,67,0.00,,,-99.99,,2013-03-08 23:22:00,
2013-03-08 18:32:00,34.0,25.0,-100.00,NNW,335,4.0,9.0,67,0.00,,,-99.99,,2013-03-08 23:32:00,
2013-03-08 18:42:00,34.0,25.0,-100.00,NNE,20,4.0,11.0,67,0.00,,,-99.99,,2013-03-08 23:42:00,
2013-03-08 18:52:00,34.0,24.0,-100.00,NE,35,3.0,7.0,67,0.00,,,-99.99,,2013-03-08 23:52:00,
2013-03-08 19:02:00,34.0,24.0,-100.00,NNE,20,5.0,8.0,67,0.00,,,-99.99,,2013-03-09 00:02:00,
2013-03-08 19:11:00,34.0,24.0,-100.00,NNE,25,2.0,5.0,67,0.00,,,-99.99,,2013-03-09 00:11:00,
2013-03-08 19:22:00,34.0,24.0,-100.00,NNE,20,2.0,6.0,67,0.00,,,-99.99,,2013-03-09 00:22:00,
2013-03-08 19:32:00,33.0,23.0,-100.00,North,0,2.0,3.0,65,0.00,,,-99.99,,2013-03-09 00:32:00,
2013-03-08 19:42:00,33.0,24.0,-100.00,North,5,1.0,3.0,66,0.00,,,-99.99,,2013-03-09 00:42:00,
2013-03-08 19:52:00,33.0,23.0,-100.00,North,0,3.0,4.0,66,0.00,,,-99.99,,2013-03-09 00:52:00,
2013-03-08 20:02:00,33.0,23.0,-100.00,North,355,2.0,5.0,66,0.00,,,-99.99,,2013-03-09 01:02:00,
2013-03-08 20:12:00,33.0,23.0,-100.00,North,5,2.0,4.0,67,0.00,,,-99.99,,2013-03-09 01:12:00,
2013-03-08 20:22:00,33.0,23.0,-100.00,NNW,340,2.0,4.0,67,0.00,,,-99.99,,2013-03-09 01:22:00,
2013-03-08 20:32:00,31.0,23.0,-100.00,NW,315,1.0,3.0,69,0.00,,,-99.99,,2013-03-09 01:32:00,
2013-03-08 20:42:00,31.0,23.0,-100.00,WNW,295,1.0,2.0,70,0.00,,,-99.99,,2013-03-09 01:42:00,
2013-03-08 20:51:00,31.0,23.0,-100.00,WNW,290,1.0,2.0,71,0.00,,,-99.99,,2013-03-09 01:51:00,
2013-03-08 21:01:00,31.0,23.0,-100.00,NW,310,1.0,2.0,72,0.00,,,-99.99,,2013-03-09 02:01:00,
2013-03-08 21:11:00,31.0,23.0,-100.00,NW,325,2.0,2.0,72,0.00,,,-99.99,,2013-03-09 02:11:00,
2013-03-08 21:21:00,31.0,23.0,-100.00,NNW,330,2.0,3.0,72,0.00,,,-99.99,,2013-03-09 02:21:00,
2013-03-08 21:31:00,30.0,23.0,-100.00,NW,320,2.0,3.0,74,0.00,,,-99.99,,2013-03-09 02:31:00,
2013-03-08 21:41:00,30.0,23.0,-100.00,NW,315,2.0,3.0,75,0.00,,,-99.99,,2013-03-09 02:41:00,
2013-03-08 21:51:00,30.0,23.0,-100.00,NNW,335,2.0,4.0,76,0.00,,,-99.99,,2013-03-09 02:51:00,
2013-03-08 22:01:00,30.0,24.0,-100.00,NNW,330,3.0,4.0,75,0.00,,,-99.99,,2013-03-09 03:01:00,
2013-03-08 22:11:00,30.0,23.0,-100.00,NW,325,2.0,4.0,77,0.00,,,-99.99,,2013-03-09 03:11:00,
2013-03-08 22:21:00,29.0,23.0,-100.00,WNW,295,2.0,3.0,77,0.00,,,-99.99,,2013-03-09 03:21:00,
2013-03-08 22:31:00,29.0,24.0,-100.00,NW,310,2.0,3.0,78,0.00,,,-99.99,,2013-03-09 03:31:00,
2013-03-08 22:41:00,29.0,24.0,-100.00,NW,320,3.0,4.0,78,0.00,,,-99.99,,2013-03-09 03:41:00,
2013-03-08 22:52:00,29.0,23.0,-100.00,WNW,290,3.0,3.0,79,0.00,,,-99.99,,2013-03-09 03:52:00,
2013-03-08 23:01:00,29.0,24.0,-100.00,WNW,295,3.0,4.0,80,0.00,,,-99.99,,2013-03-09 04:01:00,
2013-03-08 23:11:00,28.0,23.0,-100.00,WNW,300,2.0,3.0,81,0.00,,,-99.99,,2013-03-09 04:11:00,
2013-03-08 23:22:00,28.0,23.0,-100.00,NW,305,2.0,3.0,81,0.00,,,-99.99,,2013-03-09 04:22:00,
2013-03-08 23:32:00,28.0,23.0,-100.00,NW,315,3.0,4.0,82,0.00,,,-99.99,,2013-03-09 04:32:00,
2013-03-08 23:42:00,28.0,23.0,-100.00,NW,315,3.0,4.0,82,0.00,,,-99.99,,2013-03-09 04:42:00,
2013-03-08 23:51:00,29.0,24.0,-100.00,NNW,330,3.0,4.0,82,0.00,,,-99.99,,2013-03-09 04:51:00,